This is the latest recevied weather packets stored in our database for station/object PA3BWK. If no packets are shown the sender has not sent any weather packets the latest 10 day(s).
| Time | Temp. | Humidity | Pressure | Rain* | Wind** | Luminosity | Snow |
|---|---|---|---|---|---|---|---|
| 1788178232 | 17.22° C | 84% | 1009.8 hPa | 0.51 mm | - | 72 W/m² | - |
| 1788178173 | 17.22° C | 84% | 1009.9 hPa | 0.51 mm | - | 95 W/m² | - |
| 1788178112 | 17.22° C | 84% | 1009.8 hPa | 0.51 mm | - | 79 W/m² | - |
| 1788178053 | 17.22° C | 84% | 1009.7 hPa | 0.51 mm | - | 99 W/m² | - |
| 1788177992 | 17.22° C | 84% | 1009.7 hPa | 0.51 mm | - | 83 W/m² | - |
| 1788177932 | 17.22° C | 84% | 1009.9 hPa | 1.27 mm | - | 74 W/m² | - |
| 1788177873 | 17.22° C | 84% | 1009.9 hPa | 1.27 mm | - | 65 W/m² | - |
| 1788177814 | 17.22° C | 84% | 1009.8 hPa | 1.52 mm | - | 65 W/m² | - |
| 1788177752 | 17.22° C | 84% | 1009.9 hPa | 1.78 mm | - | 65 W/m² | - |
| 1788177692 | 17.22° C | 84% | 1009.9 hPa | 1.78 mm | - | 65 W/m² | - |
| 1788177632 | 17.22° C | 84% | 1009.8 hPa | 1.78 mm | - | 65 W/m² | - |
| 1788177582 | 17.22° C | 84% | 1009.8 hPa | 2.03 mm | - | 62 W/m² | - |
| 1788177514 | 17.22° C | 84% | 1009.7 hPa | 2.03 mm | - | 58 W/m² | - |
| 1788177453 | 17.78° C | 85% | 1009.7 hPa | 2.03 mm | - | 55 W/m² | - |
| 1788177393 | 17.78° C | 85% | 1009.8 hPa | 2.03 mm | - | 53 W/m² | - |
| 1788177343 | 17.78° C | 85% | 1009.7 hPa | 2.03 mm | - | 60 W/m² | - |
| 1788177273 | 17.78° C | 85% | 1009.7 hPa | 2.03 mm | - | 65 W/m² | - |
| 1788177212 | 17.78° C | 85% | 1009.6 hPa | 2.03 mm | - | 76 W/m² | - |
| 1788177153 | 17.78° C | 86% | 1009.6 hPa | 2.03 mm | - | 65 W/m² | - |
| 1788177095 | 17.78° C | 86% | 1009.7 hPa | 2.03 mm | - | 88 W/m² | - |
| 1788177032 | 17.78° C | 86% | 1009.7 hPa | 2.03 mm | - | 74 W/m² | - |
| 1788176972 | 17.78° C | 86% | 1009.7 hPa | 2.03 mm | - | 86 W/m² | - |
| 1788176912 | 17.78° C | 86% | 1009.7 hPa | 2.03 mm | - | 93 W/m² | - |
| 1788176854 | 17.78° C | 86% | 1009.7 hPa | 2.03 mm | - | 123 W/m² | - |
| 1788176794 | 17.78° C | 86% | 1009.7 hPa | 2.03 mm | - | 123 W/m² | - |
* Rain latest hour (hover to see other rain measurements)
** Current wind speed in m/s (hover to see current wind gust speed)